WZZ6813 LHBP-EYVI

Flight info

Callsign WZZ6813
Flight time 1h 19m
Altitude 37000
Route LITKU Y301 KALIF DCT KELEL DCT MODGU DCT GERVI M857 XESNA DCT EVODO DCT OFEDE DCT LIZUP DCT DIMTA
Aircraft A21N/M-SDE2E3FGHIRWXY/LB1

Departure

Time 2026-05-08 09:49
Airport Budapest Liszt Ferenc International Airport (LHBP)

Arrival

Time 2026-05-08 11:08
Airport Vilnius International Airport (EYVI)
Time Latitude Longitude Altitude Speed Heading
2026-05-08 09:07 47.43542 19.26439 476 ft 0 kts 221°
2026-05-08 09:40 47.43548 19.26447 476 ft 2 kts 221°
2026-05-08 09:40 47.43559 19.26462 476 ft 2 kts 221°
2026-05-08 09:41 47.43567 19.26481 476 ft 2 kts 262°
2026-05-08 09:41 47.43565 19.26503 475 ft 2 kts 294°
2026-05-08 09:41 47.43561 19.26514 475 ft 1 kts 313°
2026-05-08 09:41 47.43556 19.26521 475 ft 0 kts 313°
2026-05-08 09:44 47.43557 19.26520 475 ft 0 kts 313°
2026-05-08 09:44 47.43567 19.26504 475 ft 5 kts 313°
2026-05-08 09:44 47.43607 19.26440 476 ft 11 kts 312°
2026-05-08 09:45 47.43646 19.26378 477 ft 4 kts 313°
2026-05-08 09:45 47.43666 19.26345 477 ft 3 kts 304°
2026-05-08 09:45 47.43676 19.26281 477 ft 8 kts 272°
2026-05-08 09:45 47.43674 19.26165 477 ft 13 kts 266°
2026-05-08 09:46 47.43702 19.26019 478 ft 16 kts 312°
2026-05-08 09:46 47.43720 19.25891 478 ft 14 kts 225°
2026-05-08 09:46 47.43637 19.25779 475 ft 17 kts 223°
2026-05-08 09:46 47.43540 19.25645 472 ft 20 kts 216°
2026-05-08 09:47 47.43425 19.25494 467 ft 23 kts 223°
2026-05-08 09:47 47.43296 19.25322 461 ft 26 kts 223°
2026-05-08 09:47 47.43177 19.25160 454 ft 19 kts 222°
2026-05-08 09:47 47.43078 19.25028 449 ft 12 kts 222°
2026-05-08 09:48 47.43076 19.24981 448 ft 5 kts 297°
2026-05-08 09:48 47.43115 19.24911 448 ft 17 kts 311°
2026-05-08 09:48 47.43378 19.24487 441 ft 92 kts 312°
2026-05-08 09:48 47.43956 19.23553 442 ft 153 kts 312°
2026-05-08 09:49 47.44757 19.22246 725 ft 178 kts 311°
2026-05-08 09:49 47.45569 19.20909 1387 ft 179 kts 312°
2026-05-08 09:49 47.46406 19.19565 2137 ft 178 kts 312°
2026-05-08 09:49 47.47243 19.18221 2579 ft 186 kts 312°
2026-05-08 09:50 47.48181 19.16762 2898 ft 203 kts 319°
2026-05-08 09:50 47.49483 19.15797 3198 ft 220 kts 346°
2026-05-08 09:50 47.51062 19.15396 3477 ft 239 kts 351°
2026-05-08 09:50 47.52758 19.15028 3826 ft 256 kts 352°
2026-05-08 09:51 47.54554 19.15108 4357 ft 266 kts 15°
2026-05-08 09:51 47.56203 19.16384 5094 ft 268 kts 34°
2026-05-08 09:51 47.57681 19.18075 5807 ft 271 kts 37°
2026-05-08 09:51 47.59145 19.19804 6493 ft 274 kts 37°
2026-05-08 09:52 47.60666 19.21542 7187 ft 276 kts 36°
2026-05-08 09:52 47.62206 19.23247 7872 ft 279 kts 35°
2026-05-08 09:52 47.63757 19.24932 8546 ft 282 kts 34°
2026-05-08 09:52 47.65365 19.26661 9218 ft 285 kts 34°
2026-05-08 09:53 47.66958 19.28367 9863 ft 288 kts 34°
2026-05-08 09:53 47.68619 19.30147 10427 ft 294 kts 33°
2026-05-08 09:53 47.70299 19.32038 10720 ft 311 kts 37°
2026-05-08 09:53 47.71960 19.34215 11131 ft 322 kts 40°
2026-05-08 09:54 47.73599 19.36497 11714 ft 326 kts 41°
2026-05-08 09:54 47.75227 19.38787 12297 ft 329 kts 41°
2026-05-08 09:54 47.76911 19.41154 12865 ft 333 kts 41°
2026-05-08 09:54 47.78596 19.43518 13418 ft 337 kts 40°
2026-05-08 09:55 47.80332 19.45911 13989 ft 339 kts 36°
2026-05-08 09:55 47.82331 19.47795 14555 ft 337 kts 21°
2026-05-08 09:55 47.84526 19.48846 15119 ft 335 kts
2026-05-08 09:55 47.86816 19.49514 15681 ft 337 kts
2026-05-08 09:56 47.89120 19.50133 16203 ft 340 kts
2026-05-08 09:56 47.91442 19.50764 16728 ft 343 kts
2026-05-08 09:56 47.93800 19.51419 17241 ft 346 kts
2026-05-08 09:56 47.96227 19.52105 17752 ft 349 kts
2026-05-08 09:57 48.00987 19.53467 18739 ft 353 kts
2026-05-08 09:57 48.03416 19.54166 19219 ft 356 kts
2026-05-08 09:57 48.05851 19.54868 19691 ft 358 kts
2026-05-08 09:58 48.08305 19.55575 20148 ft 361 kts
2026-05-08 09:58 48.10801 19.56298 20584 ft 364 kts
2026-05-08 09:58 48.13272 19.57013 21005 ft 367 kts
2026-05-08 09:58 48.15826 19.57752 21435 ft 370 kts
2026-05-08 09:59 48.18337 19.58481 21844 ft 373 kts
2026-05-08 09:59 48.20896 19.59185 22261 ft 375 kts
2026-05-08 09:59 48.23497 19.59575 22664 ft 375 kts 358°
2026-05-08 09:59 48.26112 19.59586 23066 ft 375 kts 353°
2026-05-08 10:00 48.28694 19.59369 23479 ft 377 kts 352°
2026-05-08 10:00 48.31329 19.59100 23858 ft 379 kts 352°
2026-05-08 10:00 48.33945 19.58831 24204 ft 382 kts 352°
2026-05-08 10:00 48.36617 19.58563 24580 ft 384 kts 351°
2026-05-08 10:01 48.39277 19.58302 24946 ft 386 kts 351°
2026-05-08 10:01 48.41962 19.58040 25291 ft 388 kts 351°
2026-05-08 10:01 48.44635 19.57779 25610 ft 390 kts 351°
2026-05-08 10:01 48.47359 19.57527 25951 ft 393 kts 353°
2026-05-08 10:02 48.50120 19.57787 26252 ft 402 kts
2026-05-08 10:02 48.52835 19.58874 26547 ft 410 kts 15°
2026-05-08 10:02 48.55451 19.60630 26841 ft 416 kts 20°
2026-05-08 10:02 48.58081 19.62581 27120 ft 419 kts 21°
2026-05-08 10:03 48.60673 19.64530 27389 ft 421 kts 21°
2026-05-08 10:03 48.63331 19.66523 27683 ft 423 kts 21°
2026-05-08 10:03 48.65964 19.68489 27969 ft 425 kts 21°
2026-05-08 10:03 48.68608 19.70454 28237 ft 427 kts 21°
2026-05-08 10:04 48.71263 19.72425 28500 ft 429 kts 21°
2026-05-08 10:04 48.73959 19.74424 28748 ft 431 kts 21°
2026-05-08 10:04 48.76630 19.76408 29001 ft 433 kts 20°
2026-05-08 10:04 48.79357 19.78432 29248 ft 435 kts 20°
2026-05-08 10:05 48.82080 19.80455 29506 ft 437 kts 20°
2026-05-08 10:05 48.84792 19.82474 29744 ft 439 kts 20°
2026-05-08 10:05 48.87553 19.84532 29990 ft 441 kts 20°
2026-05-08 10:05 48.90298 19.86580 30219 ft 443 kts 20°
2026-05-08 10:06 48.93071 19.88653 30445 ft 446 kts 20°
2026-05-08 10:06 48.95853 19.90732 30659 ft 448 kts 20°
2026-05-08 10:06 48.98638 19.92816 30866 ft 450 kts 20°
2026-05-08 10:06 49.01487 19.94952 31108 ft 451 kts 20°
2026-05-08 10:07 49.04306 19.97067 31349 ft 452 kts 20°
2026-05-08 10:07 49.07096 19.99165 31558 ft 453 kts 20°
2026-05-08 10:07 49.09947 20.01310 31768 ft 455 kts 20°
2026-05-08 10:07 49.12799 20.03459 31957 ft 457 kts 21°
2026-05-08 10:08 49.15644 20.05605 32163 ft 458 kts 21°
2026-05-08 10:08 49.18479 20.07747 32367 ft 459 kts 21°
2026-05-08 10:08 49.21333 20.09907 32580 ft 460 kts 21°
2026-05-08 10:08 49.24184 20.12069 32762 ft 462 kts 21°
2026-05-08 10:09 49.27063 20.14255 32934 ft 463 kts 21°
2026-05-08 10:09 49.29974 20.16429 33154 ft 462 kts 19°
2026-05-08 10:09 49.32897 20.18352 33410 ft 459 kts 16°
2026-05-08 10:09 49.35887 20.20075 33661 ft 457 kts 15°
2026-05-08 10:10 49.38859 20.21718 33858 ft 456 kts 14°
2026-05-08 10:10 49.41859 20.23362 34034 ft 457 kts 14°
2026-05-08 10:10 49.44850 20.25006 34220 ft 456 kts 15°
2026-05-08 10:10 49.47820 20.26642 34417 ft 456 kts 15°
2026-05-08 10:11 49.50763 20.28272 34624 ft 455 kts 15°
2026-05-08 10:11 49.53741 20.29927 34839 ft 455 kts 15°
2026-05-08 10:11 49.56716 20.31585 35047 ft 454 kts 15°
2026-05-08 10:11 49.59655 20.33225 35243 ft 454 kts 16°
2026-05-08 10:12 49.62627 20.34885 35426 ft 454 kts 16°
2026-05-08 10:12 49.65600 20.36550 35607 ft 454 kts 16°
2026-05-08 10:12 49.68552 20.38205 35790 ft 454 kts 16°
2026-05-08 10:12 49.71505 20.39861 35962 ft 454 kts 16°
2026-05-08 10:13 49.74439 20.41560 36130 ft 454 kts 18°
2026-05-08 10:13 49.77367 20.43496 36287 ft 455 kts 20°
2026-05-08 10:13 49.80246 20.45503 36432 ft 456 kts 21°
2026-05-08 10:13 49.83119 20.47531 36584 ft 456 kts 21°
2026-05-08 10:14 49.85990 20.49563 36728 ft 456 kts 21°
2026-05-08 10:14 49.88862 20.51594 36854 ft 456 kts 21°
2026-05-08 10:14 49.91740 20.53629 36978 ft 457 kts 21°
2026-05-08 10:14 49.94635 20.55676 37063 ft 458 kts 21°
2026-05-08 10:15 50.00413 20.59766 37072 ft 458 kts 21°
2026-05-08 10:15 50.06210 20.63877 37065 ft 459 kts 21°
2026-05-08 10:16 50.12023 20.68008 37071 ft 459 kts 22°
2026-05-08 10:16 50.17823 20.72142 37067 ft 460 kts 22°
2026-05-08 10:17 50.23610 20.76279 37072 ft 460 kts 22°
2026-05-08 10:17 50.29418 20.80442 37066 ft 460 kts 23°
2026-05-08 10:18 50.35255 20.84635 37062 ft 460 kts 23°
2026-05-08 10:18 50.41045 20.88807 37065 ft 460 kts 23°
2026-05-08 10:19 50.46840 20.92993 37065 ft 460 kts 23°
2026-05-08 10:20 50.55521 20.99286 37063 ft 460 kts 23°
2026-05-08 10:20 50.61290 21.03480 37064 ft 460 kts 23°
2026-05-08 10:21 50.67066 21.07694 37064 ft 460 kts 23°
2026-05-08 10:21 50.72866 21.11935 37064 ft 461 kts 23°
2026-05-08 10:22 50.78693 21.16209 37060 ft 461 kts 23°
2026-05-08 10:22 50.84474 21.20457 37064 ft 460 kts 24°
2026-05-08 10:23 50.90262 21.24727 37061 ft 460 kts 24°
2026-05-08 10:23 50.96029 21.28991 37060 ft 460 kts 24°
2026-05-08 10:24 51.01832 21.33293 37066 ft 460 kts 24°
2026-05-08 10:24 51.07595 21.37577 37065 ft 460 kts 24°
2026-05-08 10:25 51.13389 21.41897 37073 ft 460 kts 24°
2026-05-08 10:25 51.19172 21.46219 37079 ft 460 kts 24°
2026-05-08 10:26 51.24950 21.50552 37082 ft 461 kts 24°
2026-05-08 10:26 51.30719 21.54889 37068 ft 460 kts 24°
2026-05-08 10:27 51.36486 21.59236 37073 ft 461 kts 24°
2026-05-08 10:27 51.42290 21.63624 37080 ft 460 kts 24°
2026-05-08 10:28 51.48045 21.67987 37065 ft 461 kts 25°
2026-05-08 10:28 51.53828 21.72384 37064 ft 461 kts 25°
2026-05-08 10:29 51.59617 21.76797 37070 ft 462 kts 25°
2026-05-08 10:29 51.65378 21.81202 37064 ft 461 kts 25°
2026-05-08 10:30 51.71152 21.85628 37068 ft 461 kts 26°
2026-05-08 10:30 51.76941 21.90080 37063 ft 462 kts 25°
2026-05-08 10:31 51.82721 21.94537 37061 ft 461 kts 26°
2026-05-08 10:31 51.88492 21.98998 37065 ft 462 kts 26°
2026-05-08 10:32 51.94258 22.03469 37065 ft 462 kts 26°
2026-05-08 10:32 52.00014 22.07948 37075 ft 462 kts 26°
2026-05-08 10:33 52.05802 22.12460 37060 ft 461 kts 26°
2026-05-08 10:33 52.11597 22.16934 37069 ft 461 kts 24°
2026-05-08 10:34 52.17590 22.20559 37068 ft 461 kts 17°
2026-05-08 10:34 52.23770 22.23057 37070 ft 461 kts 11°
2026-05-08 10:35 52.30037 22.25192 37073 ft 462 kts 11°
2026-05-08 10:35 52.36298 22.27364 37071 ft 462 kts 12°
2026-05-08 10:35 52.39418 22.28525 36915 ft 462 kts 14°
2026-05-08 10:36 52.42538 22.29987 37008 ft 463 kts 18°
2026-05-08 10:36 52.45551 22.31731 37192 ft 464 kts 21°
2026-05-08 10:36 52.48521 22.33750 37128 ft 463 kts 24°
2026-05-08 10:36 52.51448 22.35848 37006 ft 462 kts 24°
2026-05-08 10:37 52.54367 22.37965 37040 ft 463 kts 24°
2026-05-08 10:37 52.60263 22.42238 37058 ft 464 kts 24°
2026-05-08 10:38 52.66125 22.46473 37077 ft 463 kts 24°
2026-05-08 10:38 52.72034 22.50747 37058 ft 463 kts 24°
2026-05-08 10:39 52.77912 22.55011 37070 ft 463 kts 24°
2026-05-08 10:39 52.83815 22.59303 37072 ft 464 kts 24°
2026-05-08 10:40 52.89698 22.63595 37076 ft 464 kts 24°
2026-05-08 10:40 52.95569 22.67890 37077 ft 464 kts 25°
2026-05-08 10:41 53.01488 22.72234 37077 ft 464 kts 25°
2026-05-08 10:41 53.07351 22.76548 37070 ft 463 kts 25°
2026-05-08 10:42 53.13225 22.80884 37066 ft 464 kts 25°
2026-05-08 10:42 53.19109 22.85239 37066 ft 464 kts 25°
2026-05-08 10:43 53.25024 22.89628 37078 ft 464 kts 25°
2026-05-08 10:43 53.30976 22.93720 37080 ft 466 kts 20°
2026-05-08 10:44 53.37121 22.97045 37072 ft 466 kts 18°
2026-05-08 10:44 53.43284 23.00278 37051 ft 466 kts 18°
2026-05-08 10:44 53.46384 23.01914 36663 ft 469 kts 18°
2026-05-08 10:45 53.49486 23.03554 35911 ft 478 kts 19°
2026-05-08 10:45 53.52666 23.05243 35400 ft 483 kts 19°
2026-05-08 10:45 53.55841 23.06937 34962 ft 483 kts 20°
2026-05-08 10:45 53.59064 23.08660 34398 ft 483 kts 20°
2026-05-08 10:46 53.62240 23.10365 33615 ft 482 kts 20°
2026-05-08 10:46 53.65386 23.12059 32506 ft 487 kts 20°
2026-05-08 10:46 53.68623 23.13803 31564 ft 484 kts 21°
2026-05-08 10:46 53.71796 23.15510 30864 ft 477 kts 21°
2026-05-08 10:47 53.74921 23.17195 30147 ft 469 kts 21°
2026-05-08 10:47 53.77978 23.18850 29452 ft 464 kts 21°
2026-05-08 10:47 53.81034 23.20509 28880 ft 460 kts 20°
2026-05-08 10:47 53.84024 23.22131 28362 ft 456 kts 20°
2026-05-08 10:48 53.87069 23.23784 27825 ft 452 kts 20°
2026-05-08 10:48 53.90020 23.25385 27337 ft 448 kts 20°
2026-05-08 10:48 53.92968 23.26990 26865 ft 443 kts 20°
2026-05-08 10:48 53.95878 23.28580 26367 ft 439 kts 20°
2026-05-08 10:49 53.98733 23.30139 25902 ft 435 kts 20°
2026-05-08 10:49 54.01580 23.31773 25382 ft 430 kts 25°
2026-05-08 10:49 54.04046 23.34480 24853 ft 417 kts 49°
2026-05-08 10:49 54.05636 23.38440 24393 ft 401 kts 72°
2026-05-08 10:50 54.06324 23.42939 23953 ft 390 kts 83°
2026-05-08 10:50 54.06785 23.47445 23505 ft 387 kts 83°
2026-05-08 10:50 54.07426 23.51874 23051 ft 387 kts 77°
2026-05-08 10:50 54.08309 23.56150 22625 ft 387 kts 71°
2026-05-08 10:51 54.09361 23.60356 22196 ft 384 kts 69°
2026-05-08 10:51 54.10434 23.64488 21765 ft 381 kts 69°
2026-05-08 10:51 54.11515 23.68614 21347 ft 378 kts 69°
2026-05-08 10:51 54.12569 23.72642 20948 ft 375 kts 70°
2026-05-08 10:52 54.13633 23.76708 20505 ft 372 kts 69°
2026-05-08 10:52 54.14634 23.80553 20110 ft 369 kts 69°
2026-05-08 10:52 54.15678 23.84562 19674 ft 367 kts 69°
2026-05-08 10:52 54.16701 23.88507 19247 ft 365 kts 69°
2026-05-08 10:53 54.17711 23.92414 18825 ft 362 kts 69°
2026-05-08 10:53 54.18733 23.96366 18383 ft 360 kts 69°
2026-05-08 10:53 54.19733 24.00244 17944 ft 359 kts 69°
2026-05-08 10:53 54.20731 24.04114 17550 ft 357 kts 69°
2026-05-08 10:54 54.21726 24.07984 17166 ft 353 kts 69°
2026-05-08 10:54 54.22702 24.11787 16775 ft 350 kts 69°
2026-05-08 10:54 54.23674 24.15576 16383 ft 347 kts 68°
2026-05-08 10:54 54.24632 24.19326 16006 ft 344 kts 68°
2026-05-08 10:55 54.25581 24.23046 15632 ft 340 kts 69°
2026-05-08 10:55 54.26522 24.26745 15264 ft 337 kts 69°
2026-05-08 10:55 54.27459 24.30341 14893 ft 334 kts 64°
2026-05-08 10:55 54.28844 24.33476 14500 ft 336 kts 43°
2026-05-08 10:56 54.30807 24.35607 14116 ft 336 kts 27°
2026-05-08 10:56 54.32958 24.37218 13745 ft 333 kts 25°
2026-05-08 10:56 54.35072 24.38786 13358 ft 330 kts 25°
2026-05-08 10:56 54.37170 24.40346 12968 ft 327 kts 25°
2026-05-08 10:57 54.39211 24.41888 12596 ft 324 kts 26°
2026-05-08 10:57 54.41041 24.43981 12252 ft 313 kts 50°
2026-05-08 10:57 54.42429 24.50640 11451 ft 292 kts 81°
2026-05-08 10:58 54.42741 24.54035 11031 ft 285 kts 80°
2026-05-08 10:58 54.43061 24.57300 10578 ft 279 kts 80°
2026-05-08 10:58 54.43398 24.60564 10085 ft 274 kts 79°
2026-05-08 10:58 54.43741 24.63729 9638 ft 270 kts 79°
2026-05-08 10:59 54.44089 24.66892 9142 ft 268 kts 79°
2026-05-08 10:59 54.44435 24.70005 8624 ft 265 kts 78°
2026-05-08 10:59 54.44777 24.73074 8118 ft 263 kts 78°
2026-05-08 10:59 54.45119 24.76131 7614 ft 260 kts 78°
2026-05-08 11:00 54.45459 24.79166 7078 ft 259 kts 78°
2026-05-08 11:00 54.45795 24.82190 6672 ft 257 kts 79°
2026-05-08 11:00 54.46128 24.85169 6324 ft 255 kts 78°
2026-05-08 11:00 54.46459 24.88152 5974 ft 253 kts 78°
2026-05-08 11:01 54.46784 24.91079 5622 ft 250 kts 78°
2026-05-08 11:01 54.47109 24.94016 5273 ft 247 kts 78°
2026-05-08 11:01 54.47421 24.96858 4938 ft 244 kts 78°
2026-05-08 11:01 54.47735 24.99700 4611 ft 240 kts 78°
2026-05-08 11:02 54.48043 25.02494 4226 ft 240 kts 78°
2026-05-08 11:02 54.47832 25.07946 3833 ft 230 kts 107°
2026-05-08 11:02 54.47230 25.10487 3529 ft 225 kts 108°
2026-05-08 11:03 54.46650 25.12913 3263 ft 216 kts 104°
2026-05-08 11:03 54.46562 25.15333 2983 ft 202 kts 69°
2026-05-08 11:03 54.47356 25.17227 2889 ft 192 kts 38°
2026-05-08 11:03 54.48498 25.18299 3006 ft 182 kts 28°
2026-05-08 11:04 54.49621 25.19051 3015 ft 162 kts 26°
2026-05-08 11:04 54.50614 25.19690 2997 ft 146 kts 27°
2026-05-08 11:04 54.51549 25.20321 2906 ft 145 kts 27°
2026-05-08 11:04 54.52478 25.20962 2715 ft 143 kts 27°
2026-05-08 11:05 54.53404 25.21608 2546 ft 141 kts 27°
2026-05-08 11:05 54.54310 25.22241 2347 ft 141 kts 26°
2026-05-08 11:05 54.55217 25.22876 2151 ft 141 kts 26°
2026-05-08 11:05 54.56121 25.23508 1960 ft 140 kts 25°
2026-05-08 11:06 54.57019 25.24132 1766 ft 140 kts 25°
2026-05-08 11:06 54.57927 25.24765 1568 ft 139 kts 25°
2026-05-08 11:06 54.58826 25.25383 1389 ft 139 kts 24°
2026-05-08 11:06 54.59719 25.26020 1199 ft 138 kts 24°
2026-05-08 11:07 54.60603 25.26623 1011 ft 138 kts 23°
2026-05-08 11:07 54.61493 25.27237 824 ft 137 kts 23°
2026-05-08 11:07 54.62377 25.27856 636 ft 136 kts 22°
2026-05-08 11:07 54.63190 25.28424 605 ft 106 kts 21°
2026-05-08 11:08 54.63701 25.28776 625 ft 57 kts 21°
2026-05-08 11:08 54.64028 25.29004 640 ft 45 kts 22°
2026-05-08 11:08 54.64289 25.29184 648 ft 35 kts 22°
2026-05-08 11:08 54.64426 25.29275 650 ft 11 kts 10°
2026-05-08 11:09 54.64478 25.29189 651 ft 11 kts 295°
2026-05-08 11:09 54.64509 25.29082 650 ft 7 kts 298°
2026-05-08 11:09 54.64537 25.28995 649 ft 8 kts 299°
2026-05-08 11:09 54.64560 25.28887 648 ft 10 kts 274°
2026-05-08 11:10 54.64547 25.28755 647 ft 12 kts 258°
2026-05-08 11:10 54.64524 25.28616 644 ft 11 kts 234°
2026-05-08 11:10 54.64496 25.28476 642 ft 13 kts 256°
2026-05-08 11:10 54.64475 25.28330 640 ft 9 kts 258°
2026-05-08 11:11 54.64489 25.28244 639 ft 5 kts 282°
2026-05-08 11:11 54.64490 25.28189 639 ft 1 kts 270°
2026-05-08 11:11 54.64490 25.28178 639 ft 0 kts 270°
2026-05-08 11:11 54.64490 25.28176 639 ft 0 kts 270°